• MPC Preparation (Info)

  • MPEC 2019-W06 : 2019 VW5

    The following Minor Planet Electronic Circular may be linked-to from your own Web pages, but must not otherwise be redistributed electronically.

    A form allowing access to any MPEC is at the bottom of this page.


    Read MPEC 2019-W05 Read MPEC 2019-W07


    M.P.E.C. 2019-W06                             Issued 2019 November 17, 16:53 UT
    
         The Minor Planet Electronic Circulars contain information on unusual
             minor planets and routine data on comets.  They are published
        on behalf of Division F of the International Astronomical Union by the
              Minor Planet Center, Smithsonian Astrophysical Observatory,
                              Cambridge, MA 02138, U.S.A.
    
                 Prepared using the Tamkin Foundation Computer Network
    
                                  MPC@CFA.HARVARD.EDU
                URL https://www.minorplanetcenter.net/    ISSN 1523-6714
    
                                    2019 VW5                                 
    
    
    Observations:
         K19V05W  C2019 10 18.49959902 21 49.197-20 46 13.17         22.2 GVEW006F51
         K19V05W  C2019 10 18.51051702 21 50.103-20 46 11.18         22.3 GVEW006F51
         K19V05W  C2019 10 18.51115802 21 50.214-20 46 11.31         22.4 GVEW006F51
         K19V05W  C2019 10 18.52139202 21 51.063-20 46 09.42         22.9 GVEW006F51
         K19V05W  C2019 10 18.52203102 21 51.157-20 46 09.49         23.2 GVEW006F51
         K19V05W  C2019 10 18.53226202 21 52.018-20 46 07.34         22.5 GVEW006F51
         K19V05W  C2019 10 28.41119102 38 11.534-19 25 31.26         20.3 GVEW006F52
         K19V05W  C2019 10 28.42344802 38 12.589-19 25 20.57         22.5 GVEW006F52
         K19V05W  C2019 10 28.43575702 38 13.629-19 25 10.56         22.3 GVEW006F52
         K19V05W  C2019 10 28.44803602 38 14.687-19 24 59.91         21.1 GVEW006F52
         K19V05W* C2019 11 03.40659802 48 13.036-17 39 13.90         21.97wUEW006F51
         K19V05W  C2019 11 03.41754702 48 13.989-17 38 59.56         22.15wUEW006F51
         K19V05W  C2019 11 03.42851702 48 14.925-17 38 45.29         22.16wUEW006F51
         K19V05W  C2019 11 03.43944902 48 15.875-17 38 31.33         22.27wUEW006F51
         K19V05W |C2019 11 06.25090 02 52 59.93 -16 32 08.2          22.0 GVEW006807
         K19V05W |C2019 11 06.25653 02 53 00.42 -16 31 59.3          22.1 GVEW006807
         K19V05W |C2019 11 06.26217 02 53 00.94 -16 31 50.8          22.1 GVEW006807
         K19V05W KC2019 11 17.33164 03 11 51.37 -10 39 43.4          21.7 RoEW006291
         K19V05W KC2019 11 17.34134 03 11 52.25 -10 39 20.7          21.4 RoEW006291
    
    Observer details:
    291 LPL/Spacewatch II.  Observer T. H. Bressi.  1.8-m f/2.7 reflector + CCD.
    807 Cerro Tololo Observatory, La Serena.  Observers T. Linder, R. Holmes.  
        1.00-m f/10.0 astrograph + CCD.
    F51 Pan-STARRS 1, Haleakala.  Observers J. Bulger, K. Chambers, T. Lowe, A. 
       Schultz, M. Willman.  Measurers S. Chastel, M. Huber, Y. Ramanjooloo, R. 
       Wainscoat, R. Weryk, K. Chambers, T. de Boer, L. Denneau, J. Fairlamb, H. 
       Flewelling, C.-C. Lin, E. Magnier.  1.8-m Ritchey-Chretien + CCD.
    F52 Pan-STARRS 2, Haleakala.  Observers J. Bulger, K. Chambers, T. Dukes, T. 
       Lowe, A. Schultz, M. Willman.  Measurers S. Chastel, M. Huber, Y. 
       Ramanjooloo, R. Wainscoat, R. Weryk.  1.8-m Ritchey-Chretien + CCD.
    
    Orbital elements:
    2019 VW5                                                 Earth MOID = 0.2351 AU
    Epoch 2019 Apr. 27.0 TT = JDT 2458600.5                 Bell
    M 318.28252              (2000.0)            P               Q
    n   0.20775453     Peri.  310.75843     +0.65404855     -0.74587579
    a   2.8233781      Node    97.93030     +0.72671999     +0.57329520
    e   0.5745134      Incl.    7.31198     +0.20999657     +0.33911933
    P   4.74           H   23.8           G   0.15           U   4
    Residuals in seconds of arc
    191018 F51  0.1-  0.3+    191028 F52  0.1-  0.1-    191106 807  0.4+  0.5-
    191018 F51  0.5-  0.2+    191028 F52  0.3-  0.3-    191106 807  0.2+  0.3-
    191018 F51  0.3+  0.0     191028 F52  0.1-  0.1+    191106 807  0.5+  0.4-
    191018 F51  0.1-  0.1-    191103 F51  0.0   0.1-    191117 291  0.2-  0.3-
    191018 F51  0.4+  0.3-    191103 F51  0.1+  0.2+    191117 291  0.0   0.3+
    191018 F51  0.1+  0.2-    191103 F51  0.1-  0.3+
    191028 F52  0.2-  0.6-    191103 F51  0.0   0.0
    
    Ephemeris:
    2019 VW5                 a,e,i = 2.82, 0.57, 7                   q = 1.2013
    Date    TT    R. A. (2000) Decl.     Delta      r    Elong.  Phase     V
    2019 10 18    02 21 00.6 -20 47 10   0.2811  1.2424   147.3    25.7    22.7
    ...
    2019 11 02    02 45 50.7 -18 07 58   0.2494  1.2093   147.0    26.5    22.4
    ...
    2019 11 10    02 59 22.4 -14 48 53   0.2409  1.2020   148.3    25.7    22.3
    ...
    2019 11 16    03 09 35.8 -11 28 53   0.2387  1.2014   149.8    24.5    22.2
    2019 11 17    03 11 18.0 -10 51 50   0.2388  1.2017   150.1    24.2    22.2
    2019 11 18    03 13 00.1 -10 13 50   0.2389  1.2022   150.4    24.0    22.2
    ...
    2019 11 24    03 23 10.5 -06 08 46   0.2423  1.2072   152.3    22.4    22.2
    ...
    2019 12 02    03 36 41.7 -00 13 49   0.2544  1.2204   154.4    20.5    22.3
    ...
    2019 12 17    04 02 14.7 +10 29 09   0.3025  1.2634   154.3    19.8    22.7
    
    A. U. Tomatic                (C) Copyright 2019 MPC           M.P.E.C. 2019-W06
    


    Read MPEC 2019-W05 Read MPEC 2019-W07


    MPEC number:

    Enter an MPEC number in one of the following forms:

    • 1997-B01 (the full form)
    • J97B01 (the packed version of the full form)
    • B01 (the abbreviated form)